Wetterdaten: aktuell Donnerstag, 14.11.2019 23:00
Datum Zeit Temp. Feuchte Luftdruck Nieders. Wind Richtung Richtung Sonnenschein Solar Taupunkt Windchill Windben
14.11.2019 23:00 1,8 C 91 % 1001,9 hPa 0,0 l/m 0,0 km/h (0 Bft) O-SO 123 0 min 0 W/m 0,5 C 1,8 C 0,0 km/h (0 Bft)
14.11.2019 22:55 1,9 C 91 % 1001,9 hPa 0,0 l/m 0,0 km/h (0 Bft) O-SO 123 0 min 0 W/m 0,6 C 1,9 C 0,0 km/h (0 Bft)
14.11.2019 22:50 1,9 C 91 % 1002,0 hPa 0,0 l/m 0,0 km/h (0 Bft) O-SO 123 0 min 0 W/m 0,6 C 1,9 C 0,0 km/h (0 Bft)
14.11.2019 22:45 1,8 C 92 % 1002,0 hPa 0,0 l/m 0,0 km/h (0 Bft) O-SO 123 0 min 0 W/m 0,6 C 1,8 C 0,0 km/h (0 Bft)
14.11.2019 22:40 1,8 C 92 % 1002,2 hPa 0,0 l/m 0,0 km/h (0 Bft) O-SO 123 0 min 0 W/m 0,6 C 1,8 C 0,0 km/h (0 Bft)
14.11.2019 22:35 1,7 C 91 % 1002,1 hPa 0,0 l/m 0,0 km/h (0 Bft) O-SO 123 0 min 0 W/m 0,4 C 1,7 C 0,0 km/h (0 Bft)
14.11.2019 22:30 1,8 C 91 % 1002,2 hPa 0,0 l/m 0,0 km/h (0 Bft) O-SO 123 0 min 0 W/m 0,5 C 1,8 C 0,0 km/h (0 Bft)
14.11.2019 22:25 1,9 C 91 % 1002,2 hPa 0,0 l/m 0,0 km/h (0 Bft) O-SO 123 0 min 0 W/m 0,6 C 1,9 C 0,0 km/h (0 Bft)
14.11.2019 22:20 1,9 C 91 % 1002,2 hPa 0,0 l/m 0,0 km/h (0 Bft) O-SO 123 0 min 0 W/m 0,6 C 1,9 C 0,0 km/h (0 Bft)
14.11.2019 22:15 1,8 C 92 % 1002,3 hPa 0,0 l/m 0,0 km/h (0 Bft) O-SO 123 0 min 0 W/m 0,6 C 1,8 C 0,0 km/h (0 Bft)
14.11.2019 22:10 1,6 C 92 % 1002,2 hPa 0,0 l/m 0,0 km/h (0 Bft) O-SO 123 0 min 0 W/m 0,4 C 1,6 C 0,0 km/h (0 Bft)
14.11.2019 22:05 1,4 C 92 % 1002,1 hPa 0,0 l/m 0,0 km/h (0 Bft) O-SO 123 0 min 0 W/m 0,2 C 1,4 C 0,0 km/h (0 Bft)
14.11.2019 22:00 1,3 C 91 % 1002,0 hPa 0,0 l/m 0,0 km/h (0 Bft) O-SO 123 0 min 0 W/m -0,0 C 1,3 C 0,0 km/h (0 Bft)
14.11.2019 21:55 1,4 C 90 % 1002,3 hPa 0,0 l/m 0,0 km/h (0 Bft) O-SO 123 0 min 0 W/m -0,1 C 1,4 C 0,0 km/h (0 Bft)
14.11.2019 21:50 1,5 C 90 % 1002,5 hPa 0,0 l/m 0,0 km/h (0 Bft) O-SO 123 0 min 0 W/m 0,0 C 1,5 C 0,0 km/h (0 Bft)
14.11.2019 21:45 1,7 C 90 % 1002,4 hPa 0,0 l/m 0,0 km/h (0 Bft) O-SO 123 0 min 0 W/m 0,2 C 1,7 C 0,0 km/h (0 Bft)
14.11.2019 21:40 1,8 C 90 % 1002,5 hPa 0,0 l/m 0,0 km/h (0 Bft) O-SO 123 0 min 0 W/m 0,3 C 1,8 C 0,0 km/h (0 Bft)
14.11.2019 21:35 2,0 C 90 % 1002,6 hPa 0,0 l/m 0,0 km/h (0 Bft) O-SO 123 0 min 0 W/m 0,5 C 2,0 C 0,0 km/h (0 Bft)
14.11.2019 21:30 2,1 C 90 % 1002,6 hPa 0,0 l/m 0,0 km/h (0 Bft) O-SO 123 0 min 0 W/m 0,6 C 2,1 C 0,0 km/h (0 Bft)
14.11.2019 21:25 2,2 C 90 % 1002,9 hPa 0,0 l/m 0,0 km/h (0 Bft) O-SO 123 0 min 0 W/m 0,7 C 2,2 C 0,0 km/h (0 Bft)
14.11.2019 21:20 2,3 C 90 % 1002,9 hPa 0,0 l/m 0,0 km/h (0 Bft) O-SO 123 0 min 0 W/m 0,8 C 2,3 C 0,0 km/h (0 Bft)
14.11.2019 21:15 2,3 C 90 % 1002,8 hPa 0,0 l/m 0,0 km/h (0 Bft) O-SO 123 0 min 0 W/m 0,8 C 2,3 C 0,0 km/h (0 Bft)
14.11.2019 21:10 2,3 C 90 % 1002,8 hPa 0,0 l/m 0,0 km/h (0 Bft) O-SO 123 0 min 0 W/m 0,8 C 2,3 C 0,0 km/h (0 Bft)
14.11.2019 21:05 2,3 C 90 % 1002,6 hPa 0,0 l/m 0,0 km/h (0 Bft) O-SO 123 0 min 0 W/m 0,8 C 2,3 C 0,0 km/h (0 Bft)
14.11.2019 21:00 2,4 C 90 % 1002,6 hPa 0,0 l/m 0,0 km/h (0 Bft) O-SO 123 0 min 0 W/m 0,9 C 2,4 C 0,0 km/h (0 Bft)
14.11.2019 20:55 2,4 C 90 % 1002,7 hPa 0,0 l/m 0,0 km/h (0 Bft) O-SO 123 0 min 0 W/m 0,9 C 2,4 C 0,0 km/h (0 Bft)
14.11.2019 20:50 2,4 C 90 % 1002,5 hPa 0,0 l/m 0,0 km/h (0 Bft) O-SO 123 0 min 0 W/m 0,9 C 2,4 C 0,0 km/h (0 Bft)
14.11.2019 20:45 2,4 C 91 % 1002,5 hPa 0,0 l/m 0,1 km/h (0 Bft) O-SO 123 0 min 0 W/m 1,1 C 2,4 C 1,6 km/h (1 Bft)
14.11.2019 20:40 2,4 C 91 % 1002,6 hPa 0,0 l/m 0,0 km/h (0 Bft) O-SO 123 0 min 0 W/m 1,1 C 2,4 C 0,0 km/h (0 Bft)
14.11.2019 20:35 2,4 C 91 % 1002,6 hPa 0,0 l/m 0,0 km/h (0 Bft) O-SO 123 0 min 0 W/m 1,1 C 2,4 C 0,0 km/h (0 Bft)
14.11.2019 20:30 2,4 C 91 % 1002,5 hPa 0,0 l/m 0,0 km/h (0 Bft) O-SO 123 0 min 0 W/m 1,1 C 2,4 C 0,0 km/h (0 Bft)
14.11.2019 20:25 2,3 C 91 % 1002,5 hPa 0,0 l/m 0,0 km/h (0 Bft) O-SO 123 0 min 0 W/m 1,0 C 2,3 C 0,0 km/h (0 Bft)
14.11.2019 20:20 2,3 C 91 % 1002,6 hPa 0,0 l/m 0,0 km/h (0 Bft) O-SO 123 0 min 0 W/m 1,0 C 2,3 C 0,0 km/h (0 Bft)
14.11.2019 20:15 2,3 C 91 % 1002,8 hPa 0,0 l/m 0,2 km/h (0 Bft) O-SO 123 0 min 0 W/m 1,0 C 2,3 C 3,2 km/h (1 Bft)
14.11.2019 20:10 2,3 C 91 % 1002,8 hPa 0,0 l/m 0,0 km/h (0 Bft) O-SO 123 0 min 0 W/m 1,0 C 2,3 C 0,0 km/h (0 Bft)
14.11.2019 20:05 2,3 C 90 % 1002,9 hPa 0,0 l/m 0,0 km/h (0 Bft) O-SO 123 0 min 0 W/m 0,8 C 2,3 C 0,0 km/h (0 Bft)
14.11.2019 20:00 2,4 C 90 % 1002,9 hPa 0,0 l/m 0,0 km/h (0 Bft) O-SO 123 0 min 0 W/m 0,9 C 2,4 C 0,0 km/h (0 Bft)
14.11.2019 19:55 2,5 C 90 % 1002,9 hPa 0,0 l/m 0,0 km/h (0 Bft) O-SO 123 0 min 0 W/m 1,0 C 2,5 C 0,0 km/h (0 Bft)
14.11.2019 19:50 2,6 C 90 % 1002,9 hPa 0,0 l/m 0,0 km/h (0 Bft) O-SO 123 0 min 0 W/m 1,1 C 2,6 C 0,0 km/h (0 Bft)
14.11.2019 19:45 2,7 C 91 % 1002,9 hPa 0,0 l/m 0,0 km/h (0 Bft) O-SO 123 0 min 0 W/m 1,4 C 2,7 C 0,0 km/h (0 Bft)
14.11.2019 19:40 2,6 C 91 % 1002,7 hPa 0,0 l/m 0,0 km/h (0 Bft) O-SO 123 0 min 0 W/m 1,3 C 2,6 C 0,0 km/h (0 Bft)
14.11.2019 19:35 2,4 C 90 % 1002,8 hPa 0,0 l/m 0,0 km/h (0 Bft) O-SO 123 0 min 0 W/m 0,9 C 2,4 C 0,0 km/h (0 Bft)
14.11.2019 19:30 2,6 C 89 % 1003,0 hPa 0,0 l/m 0,0 km/h (0 Bft) O-SO 123 0 min 0 W/m 1,0 C 2,6 C 0,0 km/h (0 Bft)
14.11.2019 19:25 2,7 C 89 % 1002,9 hPa 0,0 l/m 0,0 km/h (0 Bft) O-SO 123 0 min 0 W/m 1,1 C 2,7 C 0,0 km/h (0 Bft)
14.11.2019 19:20 2,7 C 89 % 1003,0 hPa 0,0 l/m 0,0 km/h (0 Bft) O-SO 123 0 min 0 W/m 1,1 C 2,7 C 0,0 km/h (0 Bft)
14.11.2019 19:15 2,8 C 89 % 1003,1 hPa 0,0 l/m 0,0 km/h (0 Bft) O-SO 123 0 min 0 W/m 1,2 C 2,8 C 0,0 km/h (0 Bft)
14.11.2019 19:10 2,9 C 89 % 1003,2 hPa 0,0 l/m 0,0 km/h (0 Bft) O-SO 123 0 min 0 W/m 1,3 C 2,9 C 0,0 km/h (0 Bft)
14.11.2019 19:05 3,1 C 88 % 1003,2 hPa 0,0 l/m 0,0 km/h (0 Bft) O-SO 123 0 min 0 W/m 1,3 C 3,1 C 0,0 km/h (0 Bft)
14.11.2019 19:00 3,2 C 88 % 1003,2 hPa 0,0 l/m 0,0 km/h (0 Bft) O-SO 123 0 min 0 W/m 1,4 C 3,2 C 0,0 km/h (0 Bft)
14.11.2019 18:55 3,4 C 88 % 1003,1 hPa 0,0 l/m 0,0 km/h (0 Bft) O-SO 123 0 min 0 W/m 1,6 C 3,4 C 0,0 km/h (0 Bft)
14.11.2019 18:50 3,6 C 88 % 1003,2 hPa 0,0 l/m 0,0 km/h (0 Bft) O-SO 123 0 min 0 W/m 1,8 C 3,6 C 0,0 km/h (0 Bft)
14.11.2019 18:45 3,7 C 88 % 1003,1 hPa 0,0 l/m 0,0 km/h (0 Bft) O-SO 123 0 min 0 W/m 1,9 C 3,7 C 0,0 km/h (0 Bft)
14.11.2019 18:40 3,7 C 88 % 1003,3 hPa 0,0 l/m 0,0 km/h (0 Bft) O-SO 123 0 min 0 W/m 1,9 C 3,7 C 0,0 km/h (0 Bft)
14.11.2019 18:35 3,8 C 88 % 1003,3 hPa 0,0 l/m 0,0 km/h (0 Bft) O-SO 123 0 min 0 W/m 2,0 C 3,8 C 0,0 km/h (0 Bft)
14.11.2019 18:30 3,9 C 88 % 1003,3 hPa 0,0 l/m 0,0 km/h (0 Bft) O-SO 123 0 min 0 W/m 2,1 C 3,9 C 0,0 km/h (0 Bft)
14.11.2019 18:25 3,9 C 88 % 1003,3 hPa 0,0 l/m 0,0 km/h (0 Bft) O-SO 123 0 min 0 W/m 2,1 C 3,9 C 0,0 km/h (0 Bft)
14.11.2019 18:20 4,1 C 87 % 1003,2 hPa 0,0 l/m 0,0 km/h (0 Bft) O-SO 123 0 min 0 W/m 2,1 C 4,1 C 0,0 km/h (0 Bft)
14.11.2019 18:15 4,1 C 87 % 1003,3 hPa 0,0 l/m 0,0 km/h (0 Bft) O-SO 123 0 min 0 W/m 2,1 C 4,1 C 0,0 km/h (0 Bft)
14.11.2019 18:10 4,2 C 87 % 1003,3 hPa 0,0 l/m 0,0 km/h (0 Bft) O-SO 123 0 min 0 W/m 2,2 C 4,2 C 0,0 km/h (0 Bft)
14.11.2019 18:05 4,2 C 87 % 1003,4 hPa 0,0 l/m 0,0 km/h (0 Bft) O-SO 123 0 min 0 W/m 2,2 C 4,2 C 0,0 km/h (0 Bft)
14.11.2019 18:00 4,2 C 86 % 1003,3 hPa 0,0 l/m 0,0 km/h (0 Bft) O-SO 123 0 min 0 W/m 2,1 C 4,2 C 0,0 km/h (0 Bft)
14.11.2019 17:55 4,3 C 86 % 1003,4 hPa 0,0 l/m 0,0 km/h (0 Bft) O-SO 123 0 min 0 W/m 2,2 C 4,3 C 0,0 km/h (0 Bft)
14.11.2019 17:50 4,3 C 86 % 1003,5 hPa 0,0 l/m 0,0 km/h (0 Bft) O-SO 123 0 min 0 W/m 2,2 C 4,3 C 0,0 km/h (0 Bft)
14.11.2019 17:45 4,4 C 85 % 1003,4 hPa 0,0 l/m 0,0 km/h (0 Bft) O-SO 123 0 min 0 W/m 2,1 C 4,4 C 0,0 km/h (0 Bft)
14.11.2019 17:40 4,4 C 85 % 1003,4 hPa 0,0 l/m 0,0 km/h (0 Bft) O-SO 123 0 min 0 W/m 2,1 C 4,4 C 0,0 km/h (0 Bft)
14.11.2019 17:35 4,6 C 84 % 1003,2 hPa 0,0 l/m 0,0 km/h (0 Bft) O-SO 123 0 min 0 W/m 2,1 C 4,6 C 0,0 km/h (0 Bft)
14.11.2019 17:30 4,7 C 84 % 1003,3 hPa 0,0 l/m 0,0 km/h (0 Bft) O-SO 123 0 min 0 W/m 2,2 C 4,7 C 0,0 km/h (0 Bft)
14.11.2019 17:25 4,8 C 84 % 1003,3 hPa 0,0 l/m 0,0 km/h (0 Bft) O-SO 123 0 min 0 W/m 2,3 C 4,8 C 0,0 km/h (0 Bft)
14.11.2019 17:20 5,0 C 83 % 1003,1 hPa 0,0 l/m 0,0 km/h (0 Bft) O-SO 123 0 min 0 W/m 2,4 C 5,0 C 0,0 km/h (0 Bft)
14.11.2019 17:15 5,2 C 82 % 1003,2 hPa 0,0 l/m 0,0 km/h (0 Bft) O-SO 123 0 min 0 W/m 2,4 C 5,2 C 0,0 km/h (0 Bft)
14.11.2019 17:10 5,3 C 81 % 1003,2 hPa 0,0 l/m 0,0 km/h (0 Bft) O-SO 123 0 min 0 W/m 2,3 C 5,3 C 0,0 km/h (0 Bft)
14.11.2019 17:05 5,4 C 81 % 1003,1 hPa 0,0 l/m 0,0 km/h (0 Bft) O-SO 123 0 min 0 W/m 2,4 C 5,4 C 0,0 km/h (0 Bft)
14.11.2019 17:00 5,6 C 81 % 1003,2 hPa 0,0 l/m 0,0 km/h (0 Bft) O-SO 123 0 min 0 W/m 2,6 C 5,6 C 0,0 km/h (0 Bft)
14.11.2019 16:55 5,7 C 80 % 1003,3 hPa 0,0 l/m 0,0 km/h (0 Bft) O-SO 123 0 min 0 W/m 2,5 C 5,7 C 0,0 km/h (0 Bft)
14.11.2019 16:50 5,8 C 80 % 1003,3 hPa 0,0 l/m 0,0 km/h (0 Bft) O-SO 123 0 min 0 W/m 2,6 C 5,8 C 0,0 km/h (0 Bft)
14.11.2019 16:45 6,1 C 80 % 1003,3 hPa 0,0 l/m 0,0 km/h (0 Bft) O-SO 123 0 min 0 W/m 2,9 C 6,1 C 0,0 km/h (0 Bft)
14.11.2019 16:40 6,3 C 78 % 1003,5 hPa 0,0 l/m 0,0 km/h (0 Bft) O-SO 123 0 min 0 W/m 2,8 C 6,3 C 0,0 km/h (0 Bft)
14.11.2019 16:35 6,6 C 78 % 1003,5 hPa 0,0 l/m 0,0 km/h (0 Bft) O-SO 123 0 min 0 W/m 3,0 C 6,6 C 0,0 km/h (0 Bft)
14.11.2019 16:30 6,8 C 76 % 1003,6 hPa 0,0 l/m 0,0 km/h (0 Bft) O-SO 123 0 min 5 W/m 2,9 C 6,8 C 0,0 km/h (0 Bft)
14.11.2019 16:25 6,9 C 75 % 1003,6 hPa 0,0 l/m 0,0 km/h (0 Bft) O-SO 123 0 min 5 W/m 2,8 C 6,9 C 0,0 km/h (0 Bft)
14.11.2019 16:20 7,1 C 75 % 1003,7 hPa 0,0 l/m 0,0 km/h (0 Bft) O-SO 123 0 min 7 W/m 3,0 C 7,1 C 0,0 km/h (0 Bft)
14.11.2019 16:15 7,1 C 74 % 1003,7 hPa 0,0 l/m 0,0 km/h (0 Bft) O-SO 123 0 min 9 W/m 2,8 C 7,1 C 0,0 km/h (0 Bft)
14.11.2019 16:10 7,3 C 73 % 1003,7 hPa 0,0 l/m 0,0 km/h (0 Bft) O-SO 123 0 min 16 W/m 2,8 C 7,3 C 0,0 km/h (0 Bft)
14.11.2019 16:05 7,5 C 74 % 1003,7 hPa 0,0 l/m 0,0 km/h (0 Bft) O-SO 123 0 min 19 W/m 3,2 C 7,5 C 0,0 km/h (0 Bft)
14.11.2019 16:00 7,7 C 71 % 1003,7 hPa 0,0 l/m 2,3 km/h (1 Bft) O-SO 123 0 min 23 W/m 2,8 C 7,7 C 4,8 km/h (1 Bft)
14.11.2019 15:55 7,9 C 69 % 1003,5 hPa 0,0 l/m 3,0 km/h (1 Bft) O-SO 123 0 min 26 W/m 2,6 C 7,9 C 6,4 km/h (2 Bft)
14.11.2019 15:50 8,1 C 67 % 1003,4 hPa 0,0 l/m 6,4 km/h (2 Bft) O-SO 123 0 min 32 W/m 2,3 C 8,1 C 12,9 km/h (3 Bft)
14.11.2019 15:45 8,2 C 66 % 1003,3 hPa 0,0 l/m 3,6 km/h (1 Bft) O-SO 109 0 min 35 W/m 2,2 C 8,2 C 11,3 km/h (2 Bft)
14.11.2019 15:40 8,3 C 66 % 1003,2 hPa 0,0 l/m 0,6 km/h (0 Bft) O-SO 107 0 min 42 W/m 2,3 C 8,3 C 9,7 km/h (2 Bft)
14.11.2019 15:35 8,4 C 65 % 1003,0 hPa 0,0 l/m 4,8 km/h (1 Bft) O-SO 107 0 min 47 W/m 2,2 C 8,4 C 16,1 km/h (3 Bft)
14.11.2019 15:30 8,5 C 65 % 1002,9 hPa 0,0 l/m 4,1 km/h (1 Bft) O-SO 105 0 min 67 W/m 2,3 C 8,5 C 14,5 km/h (3 Bft)
14.11.2019 15:25 8,5 C 64 % 1002,8 hPa 0,0 l/m 9,2 km/h (2 Bft) O 101 0 min 98 W/m 2,1 C 6,4 C 19,3 km/h (3 Bft)
14.11.2019 15:20 8,6 C 63 % 1002,9 hPa 0,0 l/m 10,0 km/h (2 Bft) O 98 0 min 72 W/m 2,0 C 6,0 C 19,3 km/h (3 Bft)
14.11.2019 15:15 8,7 C 63 % 1003,1 hPa 0,0 l/m 7,6 km/h (2 Bft) O-SO 117 0 min 102 W/m 2,1 C 7,8 C 19,3 km/h (3 Bft)
14.11.2019 15:10 8,8 C 62 % 1003,2 hPa 0,0 l/m 7,1 km/h (2 Bft) O-SO 109 0 min 116 W/m 1,9 C 8,3 C 16,1 km/h (3 Bft)
14.11.2019 15:05 8,9 C 63 % 1003,2 hPa 0,0 l/m 5,7 km/h (2 Bft) O 90 0 min 97 W/m 2,2 C 8,9 C 16,1 km/h (3 Bft)
14.11.2019 15:00 9,1 C 62 % 1003,1 hPa 0,0 l/m 9,1 km/h (2 Bft) O 98 5 min 172 W/m 2,2 C 7,2 C 14,5 km/h (3 Bft)
14.11.2019 14:55 9,1 C 61 % 1003,1 hPa 0,0 l/m 7,9 km/h (2 Bft) O 94 5 min 188 W/m 2,0 C 8,0 C 16,1 km/h (3 Bft)
14.11.2019 14:50 9,1 C 64 % 1003,1 hPa 0,0 l/m 3,4 km/h (1 Bft) O-SO 107 5 min 167 W/m 2,7 C 9,1 C 16,1 km/h (3 Bft)
14.11.2019 14:45 9,1 C 64 % 1003,1 hPa 0,0 l/m 4,0 km/h (1 Bft) O-SO 123 5 min 155 W/m 2,7 C 9,1 C 14,5 km/h (3 Bft)
14.11.2019 14:40 9,1 C 65 % 1003,1 hPa 0,0 l/m 5,9 km/h (2 Bft) O 98 0 min 134 W/m 2,9 C 9,1 C 12,9 km/h (3 Bft)
14.11.2019 14:35 9,1 C 67 % 1003,2 hPa 0,0 l/m 4,4 km/h (1 Bft) O-SO 115 0 min 146 W/m 3,3 C 9,1 C 12,9 km/h (3 Bft)
14.11.2019 14:30 9,1 C 66 % 1003,1 hPa 0,0 l/m 1,3 km/h (1 Bft) O-SO 117 0 min 137 W/m 3,1 C 9,1 C 6,4 km/h (2 Bft)
14.11.2019 14:25 9,0 C 68 % 1003,3 hPa 0,0 l/m 0,0 km/h (0 Bft) O-SO 117 0 min 144 W/m 3,4 C 9,0 C 0,0 km/h (0 Bft)
14.11.2019 14:20 8,9 C 68 % 1003,3 hPa 0,0 l/m 0,3 km/h (0 Bft) O-SO 117 5 min 155 W/m 3,3 C 8,9 C 4,8 km/h (1 Bft)
14.11.2019 14:15 8,8 C 68 % 1003,4 hPa 0,0 l/m 1,1 km/h (1 Bft) O-SO 117 0 min 141 W/m 3,2 C 8,8 C 4,8 km/h (1 Bft)
14.11.2019 14:10 8,8 C 67 % 1003,6 hPa 0,0 l/m 0,2 km/h (0 Bft) O-SO 117 0 min 149 W/m 3,0 C 8,8 C 3,2 km/h (1 Bft)
14.11.2019 14:05 8,7 C 68 % 1003,7 hPa 0,0 l/m 0,0 km/h (0 Bft) O-SO 117 0 min 134 W/m 3,1 C 8,7 C 0,0 km/h (0 Bft)
14.11.2019 14:00 8,7 C 68 % 1003,8 hPa 0,0 l/m 0,0 km/h (0 Bft) O-SO 117 0 min 105 W/m 3,1 C 8,7 C 0,0 km/h (0 Bft)
14.11.2019 13:55 8,7 C 68 % 1003,8 hPa 0,0 l/m 3,0 km/h (1 Bft) O-SO 117 0 min 102 W/m 3,1 C 8,7 C 9,7 km/h (2 Bft)
14.11.2019 13:50 8,8 C 66 % 1003,8 hPa 0,0 l/m 1,7 km/h (1 Bft) O-SO 117 0 min 107 W/m 2,8 C 8,8 C 6,4 km/h (2 Bft)
14.11.2019 13:45 8,8 C 67 % 1003,7 hPa 0,0 l/m 4,5 km/h (1 Bft) O-SO 121 0 min 130 W/m 3,0 C 8,8 C 12,9 km/h (3 Bft)
14.11.2019 13:40 8,8 C 66 % 1003,7 hPa 0,0 l/m 6,6 km/h (2 Bft) SO 126 0 min 102 W/m 2,8 C 8,7 C 14,5 km/h (3 Bft)
14.11.2019 13:35 8,7 C 69 % 1003,8 hPa 0,0 l/m 6,5 km/h (2 Bft) O-SO 123 0 min 100 W/m 3,3 C 8,6 C 14,5 km/h (3 Bft)
14.11.2019 13:30 8,7 C 68 % 1003,8 hPa 0,0 l/m 3,9 km/h (1 Bft) S-SO 147 0 min 109 W/m 3,1 C 8,7 C 14,5 km/h (3 Bft)
14.11.2019 13:25 8,6 C 68 % 1003,7 hPa 0,0 l/m 4,6 km/h (1 Bft) O 99 0 min 137 W/m 3,0 C 8,6 C 12,9 km/h (3 Bft)
14.11.2019 13:20 8,6 C 69 % 1003,8 hPa 0,0 l/m 3,9 km/h (1 Bft) O-SO 121 5 min 200 W/m 3,2 C 8,6 C 12,9 km/h (3 Bft)
14.11.2019 13:15 8,5 C 68 % 1003,8 hPa 0,0 l/m 6,5 km/h (2 Bft) O 96 0 min 139 W/m 2,9 C 8,4 C 12,9 km/h (3 Bft)
14.11.2019 13:10 8,5 C 67 % 1003,7 hPa 0,0 l/m 7,6 km/h (2 Bft) O 95 5 min 167 W/m 2,7 C 7,6 C 17,7 km/h (3 Bft)
14.11.2019 13:05 8,6 C 67 % 1003,7 hPa 0,0 l/m 8,7 km/h (2 Bft) O-SO 107 0 min 144 W/m 2,8 C 6,9 C 17,7 km/h (3 Bft)
14.11.2019 13:00 8,5 C 68 % 1003,9 hPa 0,0 l/m 9,9 km/h (2 Bft) O 98 5 min 346 W/m 2,9 C 6,0 C 22,5 km/h (4 Bft)
14.11.2019 12:55 8,6 C 70 % 1004,0 hPa 0,0 l/m 7,0 km/h (2 Bft) O-SO 119 5 min 285 W/m 3,4 C 8,1 C 16,1 km/h (3 Bft)
14.11.2019 12:50 8,4 C 69 % 1004,0 hPa 0,0 l/m 5,3 km/h (1 Bft) O 96 5 min 281 W/m 3,0 C 8,4 C 12,9 km/h (3 Bft)
14.11.2019 12:45 8,4 C 68 % 1004,1 hPa 0,0 l/m 4,2 km/h (1 Bft) O-SO 119 5 min 329 W/m 2,8 C 8,4 C 11,3 km/h (2 Bft)
14.11.2019 12:40 8,3 C 71 % 1004,2 hPa 0,0 l/m 10,4 km/h (2 Bft) SO 124 5 min 345 W/m 3,4 C 5,5 C 19,3 km/h (3 Bft)
14.11.2019 12:35 8,1 C 71 % 1004,2 hPa 0,0 l/m 8,7 km/h (2 Bft) O 90 5 min 332 W/m 3,2 C 6,4 C 17,7 km/h (3 Bft)
14.11.2019 12:30 7,9 C 69 % 1004,2 hPa 0,0 l/m 10,0 km/h (2 Bft) SO 125 5 min 308 W/m 2,6 C 5,3 C 17,7 km/h (3 Bft)
14.11.2019 12:25 8,0 C 71 % 1004,3 hPa 0,0 l/m 10,9 km/h (2 Bft) SO 126 5 min 265 W/m 3,1 C 4,8 C 24,1 km/h (4 Bft)
14.11.2019 12:20 7,9 C 72 % 1004,4 hPa 0,0 l/m 7,9 km/h (2 Bft) O 100 5 min 311 W/m 3,2 C 6,7 C 14,5 km/h (3 Bft)
14.11.2019 12:15 7,7 C 73 % 1004,4 hPa 0,0 l/m 7,9 km/h (2 Bft) SO 136 5 min 278 W/m 3,2 C 6,5 C 16,1 km/h (3 Bft)
14.11.2019 12:10 7,6 C 72 % 1004,4 hPa 0,0 l/m 7,6 km/h (2 Bft) SO 127 5 min 264 W/m 2,9 C 6,6 C 19,3 km/h (3 Bft)
14.11.2019 12:05 7,5 C 72 % 1004,4 hPa 0,0 l/m 6,3 km/h (2 Bft) O-SO 109 5 min 276 W/m 2,8 C 7,5 C 12,9 km/h (3 Bft)
14.11.2019 12:00 7,4 C 73 % 1004,4 hPa 0,0 l/m 6,1 km/h (2 Bft) O 93 5 min 239 W/m 2,9 C 7,4 C 14,5 km/h (3 Bft)
14.11.2019 11:55 7,4 C 74 % 1004,5 hPa 0,0 l/m 8,6 km/h (2 Bft) O 98 5 min 230 W/m 3,1 C 5,7 C 17,7 km/h (3 Bft)
14.11.2019 11:50 7,3 C 74 % 1004,7 hPa 0,0 l/m 7,8 km/h (2 Bft) O-SO 110 5 min 236 W/m 3,0 C 6,2 C 14,5 km/h (3 Bft)
14.11.2019 11:45 7,0 C 77 % 1004,7 hPa 0,0 l/m 6,1 km/h (2 Bft) O-SO 109 5 min 269 W/m 3,2 C 7,0 C 16,1 km/h (3 Bft)
14.11.2019 11:40 6,8 C 75 % 1004,7 hPa 0,0 l/m 8,1 km/h (2 Bft) O 80 5 min 186 W/m 2,7 C 5,4 C 19,3 km/h (3 Bft)
14.11.2019 11:35 6,7 C 75 % 1004,7 hPa 0,0 l/m 8,9 km/h (2 Bft) O 101 0 min 141 W/m 2,6 C 4,7 C 20,9 km/h (4 Bft)
14.11.2019 11:30 6,8 C 76 % 1004,7 hPa 0,0 l/m 10,4 km/h (2 Bft) O-SO 111 0 min 130 W/m 2,9 C 3,8 C 19,3 km/h (3 Bft)
14.11.2019 11:25 6,8 C 75 % 1004,7 hPa 0,0 l/m 6,2 km/h (2 Bft) O 84 0 min 135 W/m 2,7 C 6,8 C 14,5 km/h (3 Bft)
14.11.2019 11:20 7,0 C 75 % 1004,8 hPa 0,0 l/m 9,8 km/h (2 Bft) O-SO 121 0 min 135 W/m 2,9 C 4,4 C 19,3 km/h (3 Bft)
14.11.2019 11:15 7,2 C 73 % 1004,8 hPa 0,2 l/m 8,3 km/h (2 Bft) O-SO 114 5 min 160 W/m 2,7 C 5,7 C 16,1 km/h (3 Bft)
14.11.2019 11:10 7,3 C 74 % 1004,9 hPa 0,0 l/m 8,4 km/h (2 Bft) SO 143 5 min 313 W/m 3,0 C 5,7 C 17,7 km/h (3 Bft)
14.11.2019 11:05 7,3 C 76 % 1004,9 hPa 0,0 l/m 9,7 km/h (2 Bft) O-SO 121 5 min 269 W/m 3,4 C 4,8 C 19,3 km/h (3 Bft)
14.11.2019 11:00 7,3 C 75 % 1005,0 hPa 0,0 l/m 5,8 km/h (2 Bft) O-NO 72 5 min 297 W/m 3,2 C 7,3 C 14,5 km/h (3 Bft)
14.11.2019 10:55 7,2 C 75 % 1005,0 hPa 0,0 l/m 7,8 km/h (2 Bft) O-SO 105 5 min 271 W/m 3,1 C 6,1 C 17,7 km/h (3 Bft)
14.11.2019 10:50 7,3 C 74 % 1005,0 hPa 0,0 l/m 9,3 km/h (2 Bft) O 82 5 min 267 W/m 3,0 C 5,1 C 25,7 km/h (4 Bft)
14.11.2019 10:45 7,4 C 75 % 1004,9 hPa 0,0 l/m 3,9 km/h (1 Bft) O-SO 107 5 min 255 W/m 3,3 C 7,4 C 16,1 km/h (3 Bft)
14.11.2019 10:40 7,4 C 76 % 1004,9 hPa 0,0 l/m 6,4 km/h (2 Bft) SO 125 5 min 265 W/m 3,5 C 7,4 C 14,5 km/h (3 Bft)
14.11.2019 10:35 7,4 C 75 % 1005,0 hPa 0,0 l/m 6,8 km/h (2 Bft) O 82 5 min 207 W/m 3,3 C 7,1 C 14,5 km/h (3 Bft)
14.11.2019 10:30 7,4 C 76 % 1004,9 hPa 0,0 l/m 5,6 km/h (2 Bft) O-SO 106 5 min 308 W/m 3,5 C 7,4 C 12,9 km/h (3 Bft)
14.11.2019 10:25 7,4 C 76 % 1004,9 hPa 0,0 l/m 5,3 km/h (1 Bft) O 84 5 min 255 W/m 3,5 C 7,4 C 12,9 km/h (3 Bft)
14.11.2019 10:20 7,4 C 77 % 1004,9 hPa 0,0 l/m 6,0 km/h (2 Bft) SO 128 5 min 308 W/m 3,6 C 7,4 C 14,5 km/h (3 Bft)
14.11.2019 10:15 7,3 C 78 % 1004,9 hPa 0,0 l/m 7,1 km/h (2 Bft) O-SO 120 5 min 283 W/m 3,7 C 6,7 C 14,5 km/h (3 Bft)
14.11.2019 10:10 7,1 C 78 % 1004,9 hPa 0,0 l/m 4,7 km/h (1 Bft) O 88 5 min 262 W/m 3,5 C 7,1 C 12,9 km/h (3 Bft)
14.11.2019 10:05 6,8 C 79 % 1004,8 hPa 0,0 l/m 7,0 km/h (2 Bft) O-SO 113 5 min 276 W/m 3,4 C 6,3 C 14,5 km/h (3 Bft)
14.11.2019 10:00 6,8 C 79 % 1004,8 hPa 0,0 l/m 7,3 km/h (2 Bft) O 91 5 min 223 W/m 3,4 C 6,1 C 14,5 km/h (3 Bft)
14.11.2019 09:55 6,9 C 79 % 1004,7 hPa 0,0 l/m 9,6 km/h (2 Bft) O-SO 116 5 min 230 W/m 3,5 C 4,4 C 14,5 km/h (3 Bft)
14.11.2019 09:50 6,8 C 80 % 1004,7 hPa 0,0 l/m 10,1 km/h (2 Bft) O-SO 117 5 min 257 W/m 3,6 C 4,0 C 19,3 km/h (3 Bft)
14.11.2019 09:45 6,6 C 80 % 1004,8 hPa 0,0 l/m 8,6 km/h (2 Bft) O 90 5 min 255 W/m 3,4 C 4,8 C 19,3 km/h (3 Bft)
14.11.2019 09:40 6,6 C 80 % 1004,7 hPa 0,0 l/m 10,0 km/h (2 Bft) O-SO 114 5 min 241 W/m 3,4 C 3,8 C 17,7 km/h (3 Bft)
14.11.2019 09:35 6,5 C 81 % 1004,7 hPa 0,0 l/m 10,7 km/h (2 Bft) O-SO 110 5 min 229 W/m 3,5 C 3,3 C 22,5 km/h (4 Bft)
14.11.2019 09:30 6,3 C 82 % 1004,7 hPa 0,0 l/m 8,8 km/h (2 Bft) SO 130 5 min 221 W/m 3,5 C 4,4 C 20,9 km/h (4 Bft)
14.11.2019 09:25 6,2 C 81 % 1004,7 hPa 0,0 l/m 9,6 km/h (2 Bft) SO 130 5 min 211 W/m 3,2 C 3,7 C 17,7 km/h (3 Bft)
14.11.2019 09:20 6,1 C 82 % 1004,5 hPa 0,0 l/m 8,3 km/h (2 Bft) O-SO 121 5 min 202 W/m 3,3 C 4,5 C 16,1 km/h (3 Bft)
14.11.2019 09:15 5,9 C 82 % 1004,5 hPa 0,0 l/m 5,4 km/h (2 Bft) O 101 5 min 186 W/m 3,1 C 5,9 C 16,1 km/h (3 Bft)
14.11.2019 09:10 5,8 C 83 % 1004,3 hPa 0,0 l/m 6,7 km/h (2 Bft) O-SO 121 5 min 172 W/m 3,1 C 5,6 C 17,7 km/h (3 Bft)
14.11.2019 09:05 5,7 C 82 % 1004,3 hPa 0,0 l/m 10,0 km/h (2 Bft) O 96 5 min 158 W/m 2,9 C 2,8 C 20,9 km/h (4 Bft)
14.11.2019 09:00 5,6 C 83 % 1004,3 hPa 0,0 l/m 7,0 km/h (2 Bft) O-SO 111 0 min 142 W/m 2,9 C 5,1 C 14,5 km/h (3 Bft)
14.11.2019 08:55 5,5 C 83 % 1004,2 hPa 0,0 l/m 5,8 km/h (2 Bft) O 91 0 min 127 W/m 2,8 C 5,5 C 16,1 km/h (3 Bft)
14.11.2019 08:50 5,4 C 83 % 1004,3 hPa 0,0 l/m 4,6 km/h (1 Bft) NO 42 0 min 114 W/m 2,7 C 5,4 C 8,0 km/h (2 Bft)
14.11.2019 08:45 5,2 C 84 % 1004,3 hPa 0,0 l/m 3,9 km/h (1 Bft) O 79 0 min 104 W/m 2,7 C 5,2 C 9,7 km/h (2 Bft)
14.11.2019 08:40 5,1 C 84 % 1004,3 hPa 0,0 l/m 5,0 km/h (1 Bft) O-NO 59 0 min 91 W/m 2,6 C 5,1 C 11,3 km/h (2 Bft)
14.11.2019 08:35 4,9 C 85 % 1004,2 hPa 0,0 l/m 5,0 km/h (1 Bft) O-SO 106 0 min 84 W/m 2,6 C 4,9 C 11,3 km/h (2 Bft)
14.11.2019 08:30 4,8 C 85 % 1004,2 hPa 0,0 l/m 6,3 km/h (2 Bft) O 99 0 min 72 W/m 2,5 C 4,8 C 12,9 km/h (3 Bft)
14.11.2019 08:25 4,7 C 85 % 1004,1 hPa 0,0 l/m 8,0 km/h (2 Bft) O-SO 107 0 min 60 W/m 2,4 C 3,3 C 14,5 km/h (3 Bft)
14.11.2019 08:20 4,6 C 86 % 1004,0 hPa 0,0 l/m 9,7 km/h (2 Bft) O 96 0 min 44 W/m 2,5 C 1,8 C 19,3 km/h (3 Bft)
14.11.2019 08:15 4,5 C 86 % 1004,0 hPa 0,0 l/m 6,3 km/h (2 Bft) SO 125 0 min 40 W/m 2,4 C 4,5 C 12,9 km/h (3 Bft)
14.11.2019 08:10 4,4 C 87 % 1003,9 hPa 0,0 l/m 8,0 km/h (2 Bft) O 96 0 min 33 W/m 2,4 C 3,0 C 14,5 km/h (3 Bft)
14.11.2019 08:05 4,4 C 86 % 1003,9 hPa 0,0 l/m 5,1 km/h (1 Bft) O-SO 112 0 min 18 W/m 2,3 C 4,4 C 14,5 km/h (3 Bft)
14.11.2019 08:00 4,5 C 86 % 1003,9 hPa 0,0 l/m 5,0 km/h (1 Bft) O-SO 116 0 min 14 W/m 2,4 C 4,5 C 12,9 km/h (3 Bft)
14.11.2019 07:55 4,5 C 87 % 1003,8 hPa 0,0 l/m 7,1 km/h (2 Bft) O 93 0 min 12 W/m 2,5 C 3,9 C 14,5 km/h (3 Bft)
14.11.2019 07:50 4,6 C 86 % 1003,8 hPa 0,0 l/m 7,9 km/h (2 Bft) O-SO 123 0 min 11 W/m 2,5 C 3,3 C 19,3 km/h (3 Bft)
14.11.2019 07:45 4,6 C 86 % 1003,8 hPa 0,0 l/m 5,1 km/h (1 Bft) O-SO 102 0 min 9 W/m 2,5 C 4,6 C 12,9 km/h (3 Bft)
14.11.2019 07:40 4,7 C 86 % 1003,9 hPa 0,0 l/m 6,0 km/h (2 Bft) O-SO 105 0 min 7 W/m 2,6 C 4,7 C 12,9 km/h (3 Bft)
14.11.2019 07:35 4,8 C 86 % 1003,9 hPa 0,0 l/m 6,6 km/h (2 Bft) O 95 0 min 5 W/m 2,7 C 4,6 C 16,1 km/h (3 Bft)
14.11.2019 07:30 4,9 C 86 % 1003,8 hPa 0,0 l/m 7,0 km/h (2 Bft) O-SO 121 0 min 0 W/m 2,8 C 4,4 C 16,1 km/h (3 Bft)
14.11.2019 07:20 5,1 C 85 % 1003,8 hPa 0,0 l/m 4,8 km/h (1 Bft) O 90 0 min 0 W/m 2,8 C 5,1 C 9,7 km/h (2 Bft)
14.11.2019 07:15 5,2 C 85 % 1003,8 hPa 0,0 l/m 6,4 km/h (2 Bft) O-SO 112 0 min 0 W/m 2,9 C 5,2 C 16,1 km/h (3 Bft)
14.11.2019 07:10 5,3 C 85 % 1003,9 hPa 0,0 l/m 6,4 km/h (2 Bft) O-SO 112 0 min 0 W/m 3,0 C 5,3 C 12,9 km/h (3 Bft)
14.11.2019 07:05 5,3 C 85 % 1003,9 hPa 0,0 l/m 6,4 km/h (2 Bft) O-SO 112 0 min 0 W/m 3,0 C 5,3 C 16,1 km/h (3 Bft)
14.11.2019 07:00 5,4 C 85 % 1003,8 hPa 0,0 l/m 6,4 km/h (2 Bft) O-SO 112 0 min 0 W/m 3,1 C 5,4 C 17,7 km/h (3 Bft)
14.11.2019 06:55 5,5 C 86 % 1003,8 hPa 0,0 l/m 4,8 km/h (1 Bft) O-SO 112 0 min 0 W/m 3,3 C 5,5 C 11,3 km/h (2 Bft)
14.11.2019 06:50 5,4 C 86 % 1003,7 hPa 0,0 l/m 3,2 km/h (1 Bft) O-SO 112 0 min 0 W/m 3,3 C 5,4 C 12,9 km/h (3 Bft)
14.11.2019 06:45 5,4 C 86 % 1003,6 hPa 0,0 l/m 3,2 km/h (1 Bft) O-SO 112 0 min 0 W/m 3,3 C 5,4 C 9,7 km/h (2 Bft)
14.11.2019 06:40 5,4 C 86 % 1003,6 hPa 0,0 l/m 3,2 km/h (1 Bft) O-SO 112 0 min 0 W/m 3,3 C 5,4 C 9,7 km/h (2 Bft)
14.11.2019 06:35 5,4 C 86 % 1003,5 hPa 0,0 l/m 4,8 km/h (1 Bft) O-SO 112 0 min 0 W/m 3,3 C 5,4 C 9,7 km/h (2 Bft)
14.11.2019 06:30 5,4 C 86 % 1003,4 hPa 0,0 l/m 4,8 km/h (1 Bft) O-SO 112 0 min 0 W/m 3,3 C 5,4 C 9,7 km/h (2 Bft)
14.11.2019 06:25 5,5 C 86 % 1003,4 hPa 0,0 l/m 4,8 km/h (1 Bft) O-SO 112 0 min 0 W/m 3,3 C 5,5 C 9,7 km/h (2 Bft)
14.11.2019 06:20 5,5 C 86 % 1003,3 hPa 0,0 l/m 8,0 km/h (2 Bft) O-SO 112 0 min 0 W/m 3,3 C 4,1 C 12,9 km/h (3 Bft)
14.11.2019 06:15 5,5 C 86 % 1003,3 hPa 0,0 l/m 6,4 km/h (2 Bft) O-SO 112 0 min 0 W/m 3,3 C 5,5 C 11,3 km/h (2 Bft)
14.11.2019 06:10 5,5 C 86 % 1003,2 hPa 0,0 l/m 4,8 km/h (1 Bft) O-SO 112 0 min 0 W/m 3,3 C 5,5 C 11,3 km/h (2 Bft)
14.11.2019 06:05 5,5 C 86 % 1003,1 hPa 0,0 l/m 6,4 km/h (2 Bft) O-SO 112 0 min 0 W/m 3,3 C 5,5 C 12,9 km/h (3 Bft)
14.11.2019 06:00 5,5 C 86 % 1003,1 hPa 0,0 l/m 6,4 km/h (2 Bft) O-SO 112 0 min 0 W/m 3,3 C 5,5 C 11,3 km/h (2 Bft)
14.11.2019 05:55 5,5 C 86 % 1003,1 hPa 0,0 l/m 6,4 km/h (2 Bft) O-SO 112 0 min 0 W/m 3,3 C 5,5 C 12,9 km/h (3 Bft)
14.11.2019 05:50 5,5 C 86 % 1003,1 hPa 0,0 l/m 4,8 km/h (1 Bft) O-SO 112 0 min 0 W/m 3,3 C 5,5 C 11,3 km/h (2 Bft)
14.11.2019 05:45 5,5 C 86 % 1003,1 hPa 0,0 l/m 4,8 km/h (1 Bft) O-SO 112 0 min 0 W/m 3,3 C 5,5 C 9,7 km/h (2 Bft)
14.11.2019 05:40 5,5 C 86 % 1003,3 hPa 0,0 l/m 8,0 km/h (2 Bft) O-SO 112 0 min 0 W/m 3,3 C 4,1 C 14,5 km/h (3 Bft)
14.11.2019 05:35 5,4 C 86 % 1003,3 hPa 0,0 l/m 8,0 km/h (2 Bft) O-SO 112 0 min 0 W/m 3,3 C 4,0 C 12,9 km/h (3 Bft)
14.11.2019 05:30 5,4 C 87 % 1003,3 hPa 0,0 l/m 6,4 km/h (2 Bft) O-SO 112 0 min 0 W/m 3,4 C 5,4 C 12,9 km/h (3 Bft)
14.11.2019 05:25 5,4 C 87 % 1003,3 hPa 0,0 l/m 6,4 km/h (2 Bft) O-SO 112 0 min 0 W/m 3,4 C 5,4 C 11,3 km/h (2 Bft)
14.11.2019 05:20 5,4 C 86 % 1003,3 hPa 0,0 l/m 8,0 km/h (2 Bft) O-SO 112 0 min 0 W/m 3,3 C 4,0 C 12,9 km/h (3 Bft)
14.11.2019 05:15 5,4 C 86 % 1003,3 hPa 0,0 l/m 8,0 km/h (2 Bft) O-SO 112 0 min 0 W/m 3,3 C 4,0 C 16,1 km/h (3 Bft)
14.11.2019 05:10 5,4 C 86 % 1003,3 hPa 0,0 l/m 8,0 km/h (2 Bft) O 90 0 min 0 W/m 3,3 C 4,0 C 14,5 km/h (3 Bft)
14.11.2019 05:05 5,4 C 87 % 1003,3 hPa 0,0 l/m 3,2 km/h (1 Bft) O-SO 112 0 min 0 W/m 3,4 C 5,4 C 12,9 km/h (3 Bft)
14.11.2019 05:00 5,5 C 87 % 1003,4 hPa 0,0 l/m 4,8 km/h (1 Bft) O-SO 112 0 min 0 W/m 3,5 C 5,5 C 9,7 km/h (2 Bft)
14.11.2019 04:55 5,5 C 86 % 1003,5 hPa 0,0 l/m 4,8 km/h (1 Bft) O-SO 112 0 min 0 W/m 3,3 C 5,5 C 11,3 km/h (2 Bft)
14.11.2019 04:50 5,5 C 86 % 1003,5 hPa 0,0 l/m 6,4 km/h (2 Bft) O 90 0 min 0 W/m 3,3 C 5,5 C 12,9 km/h (3 Bft)
14.11.2019 04:45 5,4 C 86 % 1003,5 hPa 0,0 l/m 6,4 km/h (2 Bft) O-SO 112 0 min 0 W/m 3,3 C 5,4 C 12,9 km/h (3 Bft)
14.11.2019 04:40 5,4 C 87 % 1003,6 hPa 0,0 l/m 4,8 km/h (1 Bft) O 90 0 min 0 W/m 3,4 C 5,4 C 9,7 km/h (2 Bft)
14.11.2019 04:35 5,4 C 86 % 1003,5 hPa 0,0 l/m 1,6 km/h (1 Bft) O-SO 112 0 min 0 W/m 3,3 C 5,4 C 9,7 km/h (2 Bft)
14.11.2019 04:30 5,4 C 86 % 1003,5 hPa 0,0 l/m 4,8 km/h (1 Bft) O-SO 112 0 min 0 W/m 3,3 C 5,4 C 9,7 km/h (2 Bft)
14.11.2019 04:25 5,4 C 86 % 1003,5 hPa 0,0 l/m 3,2 km/h (1 Bft) O-SO 112 0 min 0 W/m 3,3 C 5,4 C 6,4 km/h (2 Bft)
14.11.2019 04:20 5,4 C 87 % 1003,5 hPa 0,0 l/m 1,6 km/h (1 Bft) O-SO 112 0 min 0 W/m 3,4 C 5,4 C 11,3 km/h (2 Bft)
14.11.2019 04:15 5,4 C 87 % 1003,5 hPa 0,0 l/m 8,0 km/h (2 Bft) O-SO 112 0 min 0 W/m 3,4 C 4,0 C 16,1 km/h (3 Bft)
14.11.2019 04:10 5,4 C 86 % 1003,4 hPa 0,0 l/m 6,4 km/h (2 Bft) O-SO 112 0 min 0 W/m 3,3 C 5,4 C 12,9 km/h (3 Bft)
14.11.2019 04:05 5,4 C 87 % 1003,5 hPa 0,0 l/m 3,2 km/h (1 Bft) O-SO 112 0 min 0 W/m 3,4 C 5,4 C 12,9 km/h (3 Bft)
14.11.2019 04:00 5,3 C 87 % 1003,5 hPa 0,0 l/m 1,6 km/h (1 Bft) O-SO 112 0 min 0 W/m 3,3 C 5,3 C 9,7 km/h (2 Bft)
14.11.2019 03:55 5,3 C 87 % 1003,4 hPa 0,0 l/m 3,2 km/h (1 Bft) SO 135 0 min 0 W/m 3,3 C 5,3 C 8,0 km/h (2 Bft)
14.11.2019 03:50 5,3 C 87 % 1003,5 hPa 0,0 l/m 4,8 km/h (1 Bft) SO 135 0 min 0 W/m 3,3 C 5,3 C 8,0 km/h (2 Bft)
14.11.2019 03:45 5,3 C 87 % 1003,5 hPa 0,0 l/m 4,8 km/h (1 Bft) SO 135 0 min 0 W/m 3,3 C 5,3 C 11,3 km/h (2 Bft)
14.11.2019 03:40 5,3 C 87 % 1003,6 hPa 0,0 l/m 3,2 km/h (1 Bft) SO 135 0 min 0 W/m 3,3 C 5,3 C 11,3 km/h (2 Bft)
14.11.2019 03:35 5,3 C 87 % 1003,5 hPa 0,0 l/m 4,8 km/h (1 Bft) O-SO 112 0 min 0 W/m 3,3 C 5,3 C 8,0 km/h (2 Bft)
14.11.2019 03:30 5,3 C 87 % 1003,5 hPa 0,0 l/m 4,8 km/h (1 Bft) O-SO 112 0 min 0 W/m 3,3 C 5,3 C 8,0 km/h (2 Bft)
14.11.2019 03:25 5,3 C 88 % 1003,6 hPa 0,0 l/m 1,6 km/h (1 Bft) SO 135 0 min 0 W/m 3,5 C 5,3 C 4,8 km/h (1 Bft)
14.11.2019 03:20 5,3 C 87 % 1003,6 hPa 0,0 l/m 4,8 km/h (1 Bft) SO 135 0 min 0 W/m 3,3 C 5,3 C 6,4 km/h (2 Bft)
14.11.2019 03:15 5,3 C 88 % 1003,7 hPa 0,0 l/m 3,2 km/h (1 Bft) SO 135 0 min 0 W/m 3,5 C 5,3 C 6,4 km/h (2 Bft)
14.11.2019 03:10 5,3 C 88 % 1003,7 hPa 0,0 l/m 6,4 km/h (2 Bft) SO 135 0 min 0 W/m 3,5 C 5,3 C 11,3 km/h (2 Bft)
14.11.2019 03:05 5,3 C 88 % 1003,7 hPa 0,0 l/m 4,8 km/h (1 Bft) O-SO 112 0 min 0 W/m 3,5 C 5,3 C 8,0 km/h (2 Bft)
14.11.2019 03:00 5,4 C 88 % 1003,8 hPa 0,0 l/m 4,8 km/h (1 Bft) O-SO 112 0 min 0 W/m 3,6 C 5,4 C 8,0 km/h (2 Bft)
14.11.2019 02:55 5,4 C 88 % 1003,8 hPa 0,0 l/m 4,8 km/h (1 Bft) O-SO 112 0 min 0 W/m 3,6 C 5,4 C 8,0 km/h (2 Bft)
14.11.2019 02:50 5,3 C 88 % 1003,7 hPa 0,0 l/m 8,0 km/h (2 Bft) O 90 0 min 0 W/m 3,5 C 3,9 C 14,5 km/h (3 Bft)
14.11.2019 02:45 5,3 C 88 % 1003,8 hPa 0,0 l/m 8,0 km/h (2 Bft) O-SO 112 0 min 0 W/m 3,5 C 3,9 C 14,5 km/h (3 Bft)
14.11.2019 02:40 5,3 C 89 % 1003,8 hPa 0,0 l/m 8,0 km/h (2 Bft) O-SO 112 0 min 0 W/m 3,6 C 3,9 C 12,9 km/h (3 Bft)
14.11.2019 02:35 5,3 C 89 % 1003,9 hPa 0,0 l/m 6,4 km/h (2 Bft) SO 135 0 min 0 W/m 3,6 C 5,3 C 12,9 km/h (3 Bft)
14.11.2019 02:30 5,3 C 89 % 1003,9 hPa 0,0 l/m 9,7 km/h (2 Bft) SO 135 0 min 0 W/m 3,6 C 2,6 C 17,7 km/h (3 Bft)
14.11.2019 02:25 5,3 C 89 % 1004,0 hPa 0,0 l/m 6,4 km/h (2 Bft) SO 135 0 min 0 W/m 3,6 C 5,3 C 11,3 km/h (2 Bft)
14.11.2019 02:20 5,3 C 89 % 1004,0 hPa 0,0 l/m 9,7 km/h (2 Bft) O-SO 112 0 min 0 W/m 3,6 C 2,6 C 14,5 km/h (3 Bft)
14.11.2019 02:15 5,2 C 90 % 1004,1 hPa 0,0 l/m 8,0 km/h (2 Bft) O-SO 112 0 min 0 W/m 3,7 C 3,8 C 14,5 km/h (3 Bft)
14.11.2019 02:10 5,2 C 90 % 1004,1 hPa 0,0 l/m 6,4 km/h (2 Bft) O-SO 112 0 min 0 W/m 3,7 C 5,2 C 11,3 km/h (2 Bft)
14.11.2019 02:05 5,2 C 90 % 1004,1 hPa 0,0 l/m 6,4 km/h (2 Bft) O-SO 112 0 min 0 W/m 3,7 C 5,2 C 12,9 km/h (3 Bft)
14.11.2019 02:00 5,2 C 90 % 1004,1 hPa 0,0 l/m 6,4 km/h (2 Bft) O-SO 112 0 min 0 W/m 3,7 C 5,2 C 11,3 km/h (2 Bft)
14.11.2019 01:55 5,2 C 91 % 1004,1 hPa 0,0 l/m 9,7 km/h (2 Bft) SO 135 0 min 0 W/m 3,9 C 2,5 C 17,7 km/h (3 Bft)
14.11.2019 01:50 5,2 C 91 % 1004,0 hPa 0,0 l/m 6,4 km/h (2 Bft) SO 135 0 min 0 W/m 3,9 C 5,2 C 11,3 km/h (2 Bft)
14.11.2019 01:45 5,2 C 91 % 1004,0 hPa 0,0 l/m 6,4 km/h (2 Bft) O-SO 112 0 min 0 W/m 3,9 C 5,2 C 11,3 km/h (2 Bft)
14.11.2019 01:40 5,2 C 91 % 1004,0 hPa 0,0 l/m 6,4 km/h (2 Bft) O-SO 112 0 min 0 W/m 3,9 C 5,2 C 8,0 km/h (2 Bft)
14.11.2019 01:35 5,3 C 91 % 1004,0 hPa 0,0 l/m 4,8 km/h (1 Bft) O-SO 112 0 min 0 W/m 4,0 C 5,3 C 8,0 km/h (2 Bft)
14.11.2019 01:30 5,3 C 91 % 1004,1 hPa 0,0 l/m 6,4 km/h (2 Bft) O-SO 112 0 min 0 W/m 4,0 C 5,3 C 12,9 km/h (3 Bft)
14.11.2019 01:25 5,3 C 90 % 1004,0 hPa 0,0 l/m 6,4 km/h (2 Bft) O-SO 112 0 min 0 W/m 3,8 C 5,3 C 11,3 km/h (2 Bft)
14.11.2019 01:20 5,3 C 90 % 1004,0 hPa 0,0 l/m 6,4 km/h (2 Bft) O-SO 112 0 min 0 W/m 3,8 C 5,3 C 12,9 km/h (3 Bft)
14.11.2019 01:15 5,3 C 90 % 1004,0 hPa 0,0 l/m 6,4 km/h (2 Bft) SO 135 0 min 0 W/m 3,8 C 5,3 C 12,9 km/h (3 Bft)
14.11.2019 01:10 5,3 C 90 % 1004,1 hPa 0,0 l/m 6,4 km/h (2 Bft) SO 135 0 min 0 W/m 3,8 C 5,3 C 12,9 km/h (3 Bft)
14.11.2019 01:05 5,3 C 90 % 1004,1 hPa 0,0 l/m 6,4 km/h (2 Bft) SO 135 0 min 0 W/m 3,8 C 5,3 C 12,9 km/h (3 Bft)
14.11.2019 01:00 5,3 C 90 % 1004,1 hPa 0,0 l/m 6,4 km/h (2 Bft) SO 135 0 min 0 W/m 3,8 C 5,3 C 12,9 km/h (3 Bft)
14.11.2019 00:55 5,3 C 91 % 1004,2 hPa 0,0 l/m 6,4 km/h (2 Bft) SO 135 0 min 0 W/m 4,0 C 5,3 C 12,9 km/h (3 Bft)
14.11.2019 00:50 5,3 C 91 % 1004,2 hPa 0,0 l/m 6,4 km/h (2 Bft) SO 135 0 min 0 W/m 4,0 C 5,3 C 8,0 km/h (2 Bft)
14.11.2019 00:45 5,3 C 91 % 1004,2 hPa 0,0 l/m 4,8 km/h (1 Bft) SO 135 0 min 0 W/m 4,0 C 5,3 C 11,3 km/h (2 Bft)
14.11.2019 00:40 5,3 C 91 % 1004,4 hPa 0,0 l/m 6,4 km/h (2 Bft) O-SO 112 0 min 0 W/m 4,0 C 5,3 C 12,9 km/h (3 Bft)
14.11.2019 00:35 5,4 C 90 % 1004,4 hPa 0,0 l/m 9,7 km/h (2 Bft) O-SO 112 0 min 0 W/m 3,9 C 2,7 C 12,9 km/h (3 Bft)
14.11.2019 00:30 5,4 C 90 % 1004,4 hPa 0,0 l/m 6,4 km/h (2 Bft) SO 135 0 min 0 W/m 3,9 C 5,4 C 11,3 km/h (2 Bft)
14.11.2019 00:25 5,4 C 90 % 1004,5 hPa 0,0 l/m 6,4 km/h (2 Bft) SO 135 0 min 0 W/m 3,9 C 5,4 C 11,3 km/h (2 Bft)
14.11.2019 00:20 5,4 C 90 % 1004,5 hPa 0,0 l/m 8,0 km/h (2 Bft) SO 135 0 min 0 W/m 3,9 C 4,0 C 14,5 km/h (3 Bft)
14.11.2019 00:15 5,4 C 90 % 1004,5 hPa 0,0 l/m 8,0 km/h (2 Bft) SO 135 0 min 0 W/m 3,9 C 4,0 C 16,1 km/h (3 Bft)
14.11.2019 00:10 5,3 C 90 % 1004,5 hPa 0,0 l/m 8,0 km/h (2 Bft) SO 135 0 min 0 W/m 3,8 C 3,9 C 16,1 km/h (3 Bft)
14.11.2019 00:05 5,3 C 90 % 1004,5 hPa 0,0 l/m 6,4 km/h (2 Bft) SO 135 0 min 0 W/m 3,8 C 5,3 C 14,5 km/h (3 Bft)
14.11.2019 00:00 5,3 C 90 % 1004,4 hPa 0,0 l/m 8,0 km/h (2 Bft) SO 135 0 min 0 W/m 3,8 C 3,9 C 14,5 km/h (3 Bft)
_ Min-Zeit 22:00 14:55 22:55 - 14:00 - - - - 21:55 22:00 14:00
Minimum _ 1,3 C 61 % 1001,9 hPa - 0,0 km/h (0 Bft) - - - - -0,1 C 1,3 C 0,0 km/h (0 Bft)
_ Max-Zeit 14:30 22:05 10:35 11:15 12:25 - - 09:05 13:00 00:40 14:30 10:50
Maximum _ 9,1 C 92 % 1005,0 hPa 0,2 l/m 10,9 km/h
SO (2 Bft)
- - 5 min 346 W/m 4,0 C 9,1 C 25,7 km/h
O (4 Bft)
Durchschnitt _ 5,5 C 83 % 1003,6 hPa #0,2 l/m 4,3 km/h (1 Bft) O-SO - #4:15 h 158 W/m 2,7 C 5,1 C 9,3 km/h (2 Bft)